Effective Sunday, March 17, 2024, the National Weather Service National Data Buoy Center will discontinue its Dial-A-Buoy Interactive Voice Response system. For more information, see Service Change Notice 24-06 (PDF).

Station BHRI3 - Burns Harbor, IN Image indicating link to RSS feed of recent meteorological observations for station BHRI3


Conditions at BHRI3 as of
(11:40 pm CST on 02/22/2024)
0540 GMT on 02/23/2024:
     

Click on the graph icon in the table below to see a time series plot of the last five days of that observation.

5-day plot - Wind Direction Wind Direction (WDIR): S ( 190 deg true )
5-day plot - Wind Speed Wind Speed (WSPD): 5.1 kts
5-day plot - Wind Gust Wind Gust (GST): 6.0 kts
5-day plot - Atmospheric Pressure Atmospheric Pressure (PRES):29.66 in
5-day plot - Air Temperature Air Temperature (ATMP): 44.1 °F
5-day plot - Wind Chill Wind Chill (CHILL): 40.6 °F
5-day plot - Wind Speed at 10 Meters Wind Speed at 10 meters (WSPD10M): 5.8 kts
5-day plot - Wind Speed at 20 Meters Wind Speed at 20 meters (WSPD20M): 5.8 kts
5-day plot -  Wind Speed, Wind Gust and Atmospheric Pressure Combined plot of Wind Speed, Gust, and Air Pressure
Previous observations
TIME
(CST)
5-day plot - Wind Direction
WDIR
 
5-day plot - Wind Speed
WSPD
kts
5-day plot - Wind Gust
GST
kts
5-day plot - Wave Height
WVHT
ft
5-day plot - Dominant Wave Period
DPD
sec
5-day plot - Average Wave Period
APD
sec
5-day plot - Mean Wave Direction
MWD
 
5-day plot - Atmospheric Pressure
PRES
in
5-day plot - Pressure Tendency
PTDY
in
5-day plot - Air Temperature
ATMP
°F
5-day plot - Water Temperature
WTMP
°F
5-day plot - Dew Point
DEWP
°F
5-day plot - Salinity
SAL
psu
5-day plot - Visibility
VIS
nmi
5-day plot - Tide (above MLLW)
TIDE
ft
2024-02-22 11:30 pm S 5.1 6.0----29.66- 43.7-----
2024-02-22 11:20 pm S 5.1 7.0----29.66- 43.5-----
2024-02-22 11:10 pm S 5.1 6.0----29.66- 43.7-----
2024-02-22 11:00 pm S 5.1 6.0----29.66-0.05 43.7-----
2024-02-22 10:40 pmSSW 5.1 6.0----29.67- 45.1-----
2024-02-22 10:30 pmSSW 4.1 6.0----29.67- 44.6-----
2024-02-22 10:20 pmSSW 5.1 6.0----29.68- 44.2-----
2024-02-22 10:10 pm S 4.1 5.1----29.68- 44.2-----
2024-02-22 10:00 pmSSW 5.1 6.0----29.68-0.04 44.8-----
2024-02-22 09:40 pm S 5.1 5.1----29.69- 43.9-----
2024-02-22 09:30 pm S 4.1 5.1----29.69- 43.9-----
2024-02-22 09:20 pm S 5.1 5.1----29.70- 43.9-----
2024-02-22 09:10 pmSSW 5.1 5.1----29.70- 43.5-----
2024-02-22 09:00 pmSSW 4.1 4.1----29.70-0.02 43.2-----
2024-02-22 08:40 pm S 2.9 4.1----29.70- 42.8-----
2024-02-22 08:30 pm S 4.1 4.1----29.70- 42.8-----
2024-02-22 08:20 pm S 4.1 5.1----29.71- 43.0-----
2024-02-22 08:10 pm S 5.1 5.1----29.70- 43.3-----
2024-02-22 08:00 pm S 2.9 4.1----29.71+0.00 43.5-----
2024-02-22 07:40 pm S 2.9 2.9----29.71- 43.9-----
2024-02-22 07:30 pm S 1.9 1.9----29.71- 43.7-----
2024-02-22 07:20 pmSSW 1.9 1.9----29.71- 43.3-----
2024-02-22 07:10 pm- 0.0 1.0----29.71- 43.0-----
2024-02-22 07:00 pm- 0.0 1.0----29.72+0.01 43.0-----
2024-02-22 06:40 pm- 0.0 1.0----29.72- 42.3-----
2024-02-22 06:30 pmWSW 1.0 1.9----29.72- 41.9-----
2024-02-22 06:20 pm- 0.0 1.0----29.72- 41.9-----
2024-02-22 06:10 pm- 0.0 0.0----29.72- 41.9-----
2024-02-22 06:00 pm- 0.0 0.0----29.72+0.01 41.2-----
2024-02-22 05:40 pm- 0.0 1.0----29.71- 40.8-----
2024-02-22 05:30 pm- 0.0 1.0----29.71- 41.4-----
2024-02-22 05:20 pm- 0.0 1.0----29.71- 41.0-----
2024-02-22 05:10 pm- 0.0 1.0----29.71- 40.6-----
2024-02-22 05:00 pm- 0.0 1.0----29.71+0.00 40.6-----
2024-02-22 04:40 pm W 1.0 1.0----29.71- 41.4-----
2024-02-22 04:30 pm- 0.0 1.0----29.71- 42.8-----
2024-02-22 04:20 pm- 0.0 1.0----29.71- 41.2-----
2024-02-22 04:10 pm W 1.0 1.9----29.71- 41.4-----
2024-02-22 04:00 pm W 1.0 1.9----29.71-0.01 41.9-----
2024-02-22 03:40 pm W 1.0 1.9----29.71- 42.1-----
2024-02-22 03:30 pm W 1.0 1.9----29.71- 41.7-----
2024-02-22 03:20 pmWSW 1.9 1.9----29.71- 40.8-----
2024-02-22 03:10 pmWNW 1.0 2.9----29.71- 39.7-----
2024-02-22 03:00 pmWNW 1.9 1.9----29.71-0.03 40.5-----
2024-02-22 02:40 pm W 1.9 1.9----29.71- 40.3-----
2024-02-22 02:30 pm W 1.0 1.9----29.71- 40.5-----
2024-02-22 02:20 pmWSW 1.9 2.9----29.71- 40.1-----
2024-02-22 02:10 pmWNW 1.9 2.9----29.71- 39.2-----
2024-02-22 02:00 pmWNW 1.9 4.1----29.71-0.04 39.2-----
2024-02-22 01:40 pmWNW 4.1 4.1----29.72- 39.2-----
2024-02-22 01:30 pm W 2.9 2.9----29.72- 39.6-----
2024-02-22 01:20 pm W 2.9 2.9----29.72- 40.5-----
2024-02-22 01:10 pm W 1.9 2.9----29.72- 40.3-----
2024-02-22 01:00 pmWSW 1.9 2.9----29.72-0.03 40.6-----
2024-02-22 12:40 pm W 2.9 2.9----29.73- 39.2-----
2024-02-22 12:30 pm W 1.9 1.9----29.73- 39.4-----
2024-02-22 12:20 pm W 1.9 2.9----29.73- 39.2-----
2024-02-22 12:10 pm W 1.9 2.9----29.74- 39.2-----
2024-02-22 12:00 pmWNW 1.9 2.9----29.74-0.01 38.8-----
2024-02-22 11:40 amWNW 2.9 2.9----29.75- 38.8-----
2024-02-22 11:30 amWNW 2.9 2.9----29.75- 38.5-----
2024-02-22 11:20 am W 2.9 4.1----29.75- 38.7-----
2024-02-22 11:10 amWNW 2.9 4.1----29.75- 38.7-----
2024-02-22 11:00 am W 2.9 4.1----29.75-0.01 38.1-----
2024-02-22 10:40 amWNW 2.9 4.1----29.75- 38.3-----
2024-02-22 10:30 amWNW 2.9 4.1----29.75- 38.7-----
2024-02-22 10:20 am W 1.9 2.9----29.75- 39.7-----
2024-02-22 10:10 am W 1.9 2.9----29.75- 39.6-----
2024-02-22 10:00 amWNW 1.9 4.1----29.75+0.01 39.0-----
2024-02-22 09:40 am NW 2.9 4.1----29.75- 38.8-----
2024-02-22 09:30 am N 1.9 2.9----29.75- 40.3-----
2024-02-22 09:20 amENE 1.9 4.1----29.75- 42.1-----
2024-02-22 09:10 amENE 2.9 4.1----29.75- 41.7-----
2024-02-22 09:00 am E 4.1 5.1----29.75+0.04 41.7-----
2024-02-22 08:40 am E 4.1 5.1----29.75- 40.5-----
2024-02-22 08:30 am NE 4.1 5.1----29.76- 40.3-----
2024-02-22 08:20 amENE 2.9 4.1----29.76- 40.3-----
2024-02-22 08:10 amNNE 1.9 2.9----29.76- 40.6-----
2024-02-22 08:00 am N 1.0 2.9----29.76+0.01 40.6-----
2024-02-22 07:40 am N 1.9 5.1----29.76- 40.5-----
2024-02-22 07:30 am N 1.0 1.9----29.75- 44.6-----
2024-02-22 07:20 amENE 1.0 2.9----29.75- 41.5-----
2024-02-22 07:10 amNNE 1.9 5.1----29.75- 40.1-----
2024-02-22 07:00 am E 2.9 4.1----29.74+0.00 40.6-----
2024-02-22 06:40 amENE 2.9 4.1----29.74- 42.8-----
2024-02-22 06:30 am E 2.9 5.1----29.74- 44.1-----
2024-02-22 06:20 am NE 5.1 8.9----29.74- 43.5-----
2024-02-22 06:10 amNNE 8.0 9.9----29.72- 47.3-----
2024-02-22 06:00 am SE 5.1 6.0----29.71-0.04 48.4-----
2024-02-22 05:40 amSSE 1.9 2.9----29.74- 44.6-----
2024-02-22 05:30 amESE 1.9 2.9----29.75- 42.8-----
2024-02-22 05:20 amENE 1.9 2.9----29.75- 41.4-----
2024-02-22 05:10 amENE 1.9 4.1----29.75- 40.8-----
2024-02-22 05:00 am NE 5.1 5.1----29.75-0.06 41.7-----
2024-02-22 04:40 amENE 4.1 8.0----29.74- 42.1-----
2024-02-22 04:30 am NE 5.1 7.0----29.73- 42.6-----
2024-02-22 04:20 am N 5.1 6.0----29.74- 44.4-----
2024-02-22 04:10 amNNW 4.1 7.0----29.74- 48.9-----
2024-02-22 04:00 am N 2.9 7.0----29.74-0.09 52.5-----
2024-02-22 03:40 amSSE 5.1 8.9----29.74- 51.8-----
2024-02-22 03:30 am S 7.0 8.0----29.75- 51.4-----
2024-02-22 03:20 amSSE 5.1 8.0----29.75- 51.1-----
2024-02-22 03:10 amSSE 6.0 7.0----29.75- 51.1-----
2024-02-22 03:00 amSSE 4.1 6.0----29.75-0.08 52.3-----
2024-02-22 02:40 amSSE 4.1 5.1----29.75- 52.0-----
2024-02-22 02:30 am SE 4.1 7.0----29.77- 51.6-----
2024-02-22 02:20 amSSE 5.1 6.0----29.79- 51.4-----
2024-02-22 02:10 am SE 2.9 2.9----29.81- 49.8-----
2024-02-22 02:00 am SE 1.9 1.9----29.81-0.03 47.1-----
2024-02-22 01:40 amESE 2.9 4.1----29.81- 44.6-----
2024-02-22 01:30 amENE 2.9 5.1----29.81- 45.1-----
2024-02-22 01:20 am NE 4.1 4.1----29.82- 46.0-----
2024-02-22 01:10 amENE 1.9 5.1----29.83- 45.7-----
2024-02-22 01:00 am SE 1.9 2.9----29.83-0.03 48.4-----
2024-02-22 12:40 am NE 4.1 5.1----29.82- 48.4-----
2024-02-22 12:30 am E 1.0 2.9----29.83- 52.3-----
2024-02-22 12:20 am E 2.9 5.1----29.83- 51.8-----
2024-02-22 12:10 am E 4.1 5.1----29.84- 48.6-----
2024-02-22 12:00 am E 2.9 4.1----29.83-0.03 50.2-----